PIMOHWEATHER Station Historical Data
Daily Summary for June 17, 2020 Units:  Metric    English   Both
Daily Weekly Monthly Yearly
  High: Low: Average:
Temperature: 36.0 °C 28.0 °C 31.7 °C
Dew Point: 27.0 °C 23.0 °C 25.4 °C
Humidity: 81% 58% 71%
Wind Speed: 29km/h 0km/h 7.1km/h
Wind Gust: 36km/h - -
Wind- - South
Pressure: 1008.8 hPa 1005.1 hPa -
Precipitation: 0.00 mm    
 
 
Tabular Data for June 17, 2020
Time Temperature Dew Point Pressure Wind Wind Speed Wind Gust Humidity Rainfall Rate (Hourly) solar
00:04 29.0 °C 25.0 °C 1007.8 hPa Calm     77% 0.00 mm 0.00 W/m2
00:09 29.0 °C 25.0 °C 1007.8 hPa Calm     76% 0.00 mm 0.00 W/m2
00:14 29.0 °C 24.0 °C 1007.8 hPa ENE 1 km/h 4 km/h 74% 0.00 mm 0.00 W/m2
00:19 29.0 °C 24.0 °C 1007.8 hPa SSE 2 km/h 4 km/h 73% 0.00 mm 0.00 W/m2
00:24 29.0 °C 24.0 °C 1007.8 hPa Calm     72% 0.00 mm 0.00 W/m2
00:29 29.0 °C 24.0 °C 1007.8 hPa SE 3 km/h 4 km/h 72% 0.00 mm 0.00 W/m2
00:34 29.0 °C 23.0 °C 1007.8 hPa Calm     71% 0.00 mm 0.00 W/m2
00:39 29.0 °C 23.0 °C 1007.8 hPa East 1 km/h 4 km/h 70% 0.00 mm 0.00 W/m2
00:44 29.0 °C 23.0 °C 1007.8 hPa ESE 1 km/h 4 km/h 70% 0.00 mm 0.00 W/m2
00:49 29.0 °C 23.0 °C 1007.5 hPa Calm     70% 0.00 mm 0.00 W/m2
00:54 29.0 °C 23.0 °C 1007.8 hPa Calm     70% 0.00 mm 0.00 W/m2
00:59 29.0 °C 23.0 °C 1007.8 hPa Calm     70% 0.00 mm 0.00 W/m2
01:04 29.0 °C 23.0 °C 1007.5 hPa Calm     70% 0.00 mm 0.00 W/m2
01:09 29.0 °C 23.0 °C 1007.5 hPa Calm   4 km/h 70% 0.00 mm 0.00 W/m2
01:13 29.0 °C 23.0 °C 1007.5 hPa Calm     71% 0.00 mm 0.00 W/m2
01:24 29.0 °C 23.0 °C 1007.5 hPa Calm     71% 0.00 mm 0.00 W/m2
01:29 29.0 °C 23.0 °C 1007.4 hPa Calm     71% 0.00 mm 0.00 W/m2
01:34 29.0 °C 23.0 °C 1007.3 hPa Calm     71% 0.00 mm 0.00 W/m2
01:39 29.0 °C 23.0 °C 1007.3 hPa Calm     71% 0.00 mm 0.00 W/m2
01:44 29.0 °C 23.0 °C 1007.3 hPa Calm     71% 0.00 mm 0.00 W/m2
01:49 29.0 °C 23.0 °C 1007.2 hPa Calm     72% 0.00 mm 0.00 W/m2
01:54 29.0 °C 23.0 °C 1007.3 hPa Calm     72% 0.00 mm 0.00 W/m2
01:59 29.0 °C 23.0 °C 1007.3 hPa Calm     72% 0.00 mm 0.00 W/m2
02:04 29.0 °C 23.0 °C 1007.2 hPa Calm     72% 0.00 mm 0.00 W/m2
02:09 29.0 °C 23.0 °C 1007.5 hPa Calm     72% 0.00 mm 0.00 W/m2
02:14 29.0 °C 23.0 °C 1007.5 hPa Calm     71% 0.00 mm 0.00 W/m2
02:19 29.0 °C 23.0 °C 1007.5 hPa Calm     71% 0.00 mm 0.00 W/m2
02:24 29.0 °C 23.0 °C 1007.5 hPa Calm     71% 0.00 mm 0.00 W/m2
02:29 29.0 °C 23.0 °C 1007.5 hPa Calm     70% 0.00 mm 0.00 W/m2
02:34 29.0 °C 23.0 °C 1007.5 hPa Calm     71% 0.00 mm 0.00 W/m2
02:39 29.0 °C 23.0 °C 1007.5 hPa Calm     72% 0.00 mm 0.00 W/m2
02:44 29.0 °C 23.0 °C 1007.5 hPa Calm     73% 0.00 mm 0.00 W/m2
02:49 29.0 °C 23.0 °C 1007.1 hPa Calm     72% 0.00 mm 0.00 W/m2
02:54 29.0 °C 23.0 °C 1007.5 hPa Calm     72% 0.00 mm 0.00 W/m2
02:56 29.0 °C 23.0 °C 1007.5 hPa Calm     72% 0.00 mm 0.00 W/m2
03:09 29.0 °C 24.0 °C 1007.1 hPa Calm     78% 0.00 mm 0.00 W/m2
03:14 28.0 °C 24.0 °C 1007.1 hPa Calm     79% 0.00 mm 0.00 W/m2
03:19 28.0 °C 24.0 °C 1007.0 hPa Calm     78% 0.00 mm 0.00 W/m2
03:24 28.0 °C 24.0 °C 1007.1 hPa Calm     78% 0.00 mm 0.00 W/m2
03:29 28.0 °C 24.0 °C 1007.1 hPa Calm     78% 0.00 mm 0.00 W/m2
03:34 28.0 °C 24.0 °C 1006.9 hPa Calm     77% 0.00 mm 0.00 W/m2
03:39 28.0 °C 24.0 °C 1007.0 hPa Calm     77% 0.00 mm 0.00 W/m2
03:44 28.0 °C 24.0 °C 1006.8 hPa Calm     76% 0.00 mm 0.00 W/m2
03:49 28.0 °C 24.0 °C 1006.7 hPa Calm     77% 0.00 mm 0.00 W/m2
03:54 28.0 °C 24.0 °C 1006.8 hPa Calm     77% 0.00 mm 0.00 W/m2
03:59 28.0 °C 24.0 °C 1006.8 hPa Calm     77% 0.00 mm 0.00 W/m2
04:04 28.0 °C 24.0 °C 1006.6 hPa Calm     77% 0.00 mm 0.00 W/m2
04:09 28.0 °C 24.0 °C 1006.8 hPa Calm     78% 0.00 mm 0.00 W/m2
04:14 28.0 °C 24.0 °C 1006.8 hPa Calm     78% 0.00 mm 0.00 W/m2
04:19 28.0 °C 24.0 °C 1006.8 hPa Calm     78% 0.00 mm 0.00 W/m2
04:24 28.0 °C 24.0 °C 1006.9 hPa Calm     79% 0.00 mm 0.00 W/m2
04:29 28.0 °C 24.0 °C 1006.9 hPa Calm     79% 0.00 mm 0.00 W/m2
04:34 28.0 °C 24.0 °C 1006.9 hPa Calm     79% 0.00 mm 0.00 W/m2
04:39 28.0 °C 24.0 °C 1007.1 hPa Calm     80% 0.00 mm 0.00 W/m2
04:40 28.0 °C 24.0 °C 1007.1 hPa Calm     79% 0.00 mm 0.00 W/m2
04:46 28.0 °C 24.0 °C 1006.8 hPa Calm     79% 0.00 mm 0.00 W/m2
04:54 28.0 °C 24.0 °C 1007.4 hPa North 3 km/h 4 km/h 79% 0.00 mm 0.00 W/m2
04:59 28.0 °C 24.0 °C 1007.4 hPa North 2 km/h 4 km/h 79% 0.00 mm 0.00 W/m2
05:04 28.0 °C 24.0 °C 1007.5 hPa Calm     79% 0.00 mm 0.00 W/m2
05:09 28.0 °C 24.0 °C 1007.8 hPa Calm     80% 0.00 mm 0.00 W/m2
05:14 28.0 °C 24.0 °C 1007.8 hPa Calm     80% 0.00 mm 0.00 W/m2
05:19 28.0 °C 24.0 °C 1007.5 hPa Calm     79% 0.00 mm 0.00 W/m2
05:24 28.0 °C 24.0 °C 1007.5 hPa Calm     79% 0.00 mm 1.50 W/m2
05:29 28.0 °C 24.0 °C 1007.8 hPa Calm     80% 0.00 mm 3.80 W/m2
05:34 28.0 °C 24.0 °C 1007.8 hPa Calm     79% 0.00 mm 7.88 W/m2
05:39 28.0 °C 24.0 °C 1008.1 hPa Calm     78% 0.00 mm 17.39 W/m2
05:44 28.0 °C 24.0 °C 1008.1 hPa Calm     78% 0.00 mm 44.55 W/m2
05:49 28.0 °C 24.0 °C 1008.1 hPa Calm     78% 0.00 mm 75.80 W/m2
05:54 28.0 °C 24.0 °C 1008.1 hPa Calm     78% 0.00 mm 92.65 W/m2
05:59 28.0 °C 24.0 °C 1007.8 hPa Calm     78% 0.00 mm 93.29 W/m2
06:04 28.0 °C 24.0 °C 1007.8 hPa Calm     78% 0.00 mm 83.33 W/m2
06:09 29.0 °C 24.0 °C 1008.1 hPa Calm     77% 0.00 mm 54.30 W/m2
06:14 29.0 °C 24.0 °C 1008.1 hPa Calm     76% 0.00 mm 62.89 W/m2
06:19 29.0 °C 24.0 °C 1008.1 hPa Calm     76% 0.00 mm 97.30 W/m2
06:23 29.0 °C 24.0 °C 1008.1 hPa Calm     77% 0.00 mm 109.56 W/m2
06:28 29.0 °C 24.0 °C 1008.1 hPa Calm     77% 0.00 mm 123.07 W/m2
06:34 29.0 °C 25.0 °C 1008.1 hPa Calm     76% 0.00 mm 144.69 W/m2
06:39 29.0 °C 24.0 °C 1008.1 hPa SSE 7 km/h 8 km/h 74% 0.00 mm 159.37 W/m2
06:44 30.0 °C 24.0 °C 1008.1 hPa ESE 3 km/h 4 km/h 74% 0.00 mm 171.58 W/m2
06:49 30.0 °C 24.0 °C 1008.1 hPa SE 6 km/h 8 km/h 73% 0.00 mm 190.30 W/m2
06:54 30.0 °C 25.0 °C 1008.1 hPa Calm   4 km/h 73% 0.00 mm 207.82 W/m2
06:59 30.0 °C 25.0 °C 1008.1 hPa East 4 km/h 8 km/h 72% 0.00 mm 216.82 W/m2
07:04 31.0 °C 25.0 °C 1008.1 hPa ESE 4 km/h 4 km/h 71% 0.00 mm 220.13 W/m2
07:09 31.0 °C 25.0 °C 1008.1 hPa East 6 km/h 8 km/h 71% 0.00 mm 229.82 W/m2
07:14 31.0 °C 25.0 °C 1008.1 hPa ESE 3 km/h 4 km/h 70% 0.00 mm 241.19 W/m2
07:19 31.0 °C 25.0 °C 1008.1 hPa SE 4 km/h 4 km/h 71% 0.00 mm 249.51 W/m2
07:24 31.0 °C 25.0 °C 1008.1 hPa East 3 km/h 4 km/h 70% 0.00 mm 269.48 W/m2
07:29 31.0 °C 25.0 °C 1008.1 hPa East 7 km/h 8 km/h 69% 0.00 mm 291.03 W/m2
07:34 31.0 °C 25.0 °C 1008.1 hPa ESE 10 km/h 12 km/h 70% 0.00 mm 294.24 W/m2
07:39 31.0 °C 25.0 °C 1008.5 hPa East 6 km/h 8 km/h 69% 0.00 mm 295.34 W/m2
07:44 32.0 °C 25.0 °C 1008.5 hPa Calm     69% 0.00 mm 303.46 W/m2
07:49 32.0 °C 25.0 °C 1008.5 hPa NE 5 km/h 8 km/h 68% 0.00 mm 304.39 W/m2
07:54 32.0 °C 26.0 °C 1008.1 hPa NE 2 km/h 4 km/h 68% 0.00 mm 319.12 W/m2
07:59 32.0 °C 26.0 °C 1008.1 hPa NE 7 km/h 12 km/h 68% 0.00 mm 327.12 W/m2
08:04 32.0 °C 25.0 °C 1008.1 hPa NE 9 km/h 12 km/h 68% 0.00 mm 331.65 W/m2
08:09 32.0 °C 25.0 °C 1008.1 hPa ESE 6 km/h 8 km/h 69% 0.00 mm 345.40 W/m2
08:14 32.0 °C 26.0 °C 1008.1 hPa ESE 5 km/h 12 km/h 68% 0.00 mm 353.30 W/m2
08:19 32.0 °C 26.0 °C 1008.1 hPa East 12 km/h 16 km/h 68% 0.00 mm 353.77 W/m2
08:24 32.0 °C 26.0 °C 1008.1 hPa SE 6 km/h 12 km/h 68% 0.00 mm 365.51 W/m2
08:29 33.0 °C 26.0 °C 1008.1 hPa SE 13 km/h 16 km/h 69% 0.00 mm 370.45 W/m2
08:34 32.0 °C 26.0 °C 1008.1 hPa ESE 14 km/h 16 km/h 68% 0.00 mm 370.48 W/m2
08:39 33.0 °C 26.0 °C 1008.1 hPa East 12 km/h 12 km/h 68% 0.00 mm 390.39 W/m2
08:44 33.0 °C 26.0 °C 1008.1 hPa ENE 7 km/h 12 km/h 67% 0.00 mm 394.85 W/m2
08:49 33.0 °C 26.0 °C 1008.1 hPa ESE 8 km/h 12 km/h 68% 0.00 mm 395.56 W/m2
08:54 33.0 °C 26.0 °C 1008.1 hPa ESE 13 km/h 16 km/h 68% 0.00 mm 409.90 W/m2
08:59 33.0 °C 26.0 °C 1008.1 hPa East 10 km/h 16 km/h 65% 0.00 mm 421.52 W/m2
09:04 33.0 °C 26.0 °C 1008.1 hPa WNW 7 km/h 12 km/h 66% 0.00 mm 424.13 W/m2
09:09 34.0 °C 26.0 °C 1008.1 hPa East 6 km/h 8 km/h 66% 0.00 mm 446.03 W/m2
09:14 33.0 °C 26.0 °C 1007.8 hPa SSE 10 km/h 12 km/h 65% 0.00 mm 444.27 W/m2
09:19 33.0 °C 26.0 °C 1008.0 hPa ESE 13 km/h 16 km/h 66% 0.00 mm 429.42 W/m2
09:24 33.0 °C 25.0 °C 1008.0 hPa ESE 12 km/h 16 km/h 64% 0.00 mm 426.07 W/m2
09:29 34.0 °C 25.0 °C 1007.9 hPa SE 17 km/h 20 km/h 62% 0.00 mm 433.87 W/m2
09:34 34.0 °C 25.0 °C 1007.8 hPa ESE 20 km/h 24 km/h 62% 0.00 mm 438.52 W/m2
09:39 34.0 °C 24.0 °C 1007.8 hPa ESE 14 km/h 24 km/h 59% 0.00 mm 438.62 W/m2
09:44 34.0 °C 25.0 °C 1007.8 hPa ESE 15 km/h 20 km/h 58% 0.00 mm 449.21 W/m2
09:49 34.0 °C 25.0 °C 1007.9 hPa ESE 15 km/h 20 km/h 60% 0.00 mm 450.78 W/m2
09:54 33.0 °C 25.0 °C 1007.9 hPa SE 20 km/h 24 km/h 63% 0.00 mm 459.15 W/m2
09:59 34.0 °C 25.0 °C 1007.9 hPa ESE 12 km/h 16 km/h 63% 0.00 mm 465.34 W/m2
10:04 34.0 °C 26.0 °C 1007.7 hPa SE 29 km/h 36 km/h 63% 0.00 mm 499.35 W/m2
10:09 34.0 °C 25.0 °C 1007.8 hPa SE 22 km/h 24 km/h 63% 0.00 mm 555.21 W/m2
10:14 34.0 °C 25.0 °C 1007.7 hPa East 16 km/h 20 km/h 63% 0.00 mm 485.21 W/m2
10:19 33.0 °C 25.0 °C 1007.6 hPa SE 12 km/h 16 km/h 64% 0.00 mm 545.15 W/m2
10:24 35.0 °C 26.0 °C 1007.4 hPa ENE 10 km/h 12 km/h 63% 0.00 mm 583.49 W/m2
10:29 35.0 °C 26.0 °C 1007.4 hPa SE 15 km/h 20 km/h 62% 0.00 mm 584.74 W/m2
10:34 34.0 °C 26.0 °C 1007.5 hPa SE 15 km/h 20 km/h 64% 0.00 mm 573.12 W/m2
10:39 34.0 °C 26.0 °C 1007.4 hPa ESE 15 km/h 20 km/h 64% 0.00 mm 624.57 W/m2
10:44 34.0 °C 26.0 °C 1007.4 hPa SE 11 km/h 16 km/h 66% 0.00 mm 641.31 W/m2
10:49 34.0 °C 26.0 °C 1007.1 hPa SE 20 km/h 20 km/h 65% 0.00 mm 647.40 W/m2
10:54 34.0 °C 26.0 °C 1007.2 hPa SE 9 km/h 12 km/h 65% 0.00 mm 596.58 W/m2
10:59 34.0 °C 26.0 °C 1007.0 hPa SE 14 km/h 20 km/h 65% 0.00 mm 609.87 W/m2
11:04 34.0 °C 26.0 °C 1007.1 hPa SE 15 km/h 20 km/h 66% 0.00 mm 427.19 W/m2
11:09 34.0 °C 26.0 °C 1007.1 hPa SSE 9 km/h 16 km/h 66% 0.00 mm 626.16 W/m2
11:14 35.0 °C 27.0 °C 1007.1 hPa NE 12 km/h 16 km/h 62% 0.00 mm 640.82 W/m2
11:19 35.0 °C 26.0 °C 1007.1 hPa SE 17 km/h 20 km/h 63% 0.00 mm 638.49 W/m2
11:24 34.0 °C 26.0 °C 1007.1 hPa SE 19 km/h 24 km/h 64% 0.00 mm 630.03 W/m2
11:29 35.0 °C 26.0 °C 1007.1 hPa SE 18 km/h 20 km/h 64% 0.00 mm 627.56 W/m2
11:34 35.0 °C 26.0 °C 1007.1 hPa ESE 15 km/h 16 km/h 62% 0.00 mm 471.90 W/m2
11:39 35.0 °C 26.0 °C 1007.1 hPa SE 17 km/h 20 km/h 62% 0.00 mm 602.35 W/m2
11:44 35.0 °C 26.0 °C 1007.1 hPa SSE 10 km/h 12 km/h 62% 0.00 mm 672.94 W/m2
11:49 35.0 °C 26.0 °C 1007.1 hPa ESE 10 km/h 16 km/h 62% 0.00 mm 554.59 W/m2
11:54 35.0 °C 26.0 °C 1006.8 hPa SE 13 km/h 16 km/h 61% 0.00 mm 474.68 W/m2
11:59 35.0 °C 26.0 °C 1006.8 hPa SE 16 km/h 20 km/h 63% 0.00 mm 298.69 W/m2
12:04 35.0 °C 26.0 °C 1006.8 hPa SE 10 km/h 12 km/h 62% 0.00 mm 332.65 W/m2
12:09 35.0 °C 26.0 °C 1006.8 hPa SE 14 km/h 16 km/h 63% 0.00 mm 676.76 W/m2
12:14 34.0 °C 26.0 °C 1006.8 hPa ESE 14 km/h 20 km/h 63% 0.00 mm 471.01 W/m2
12:19 34.0 °C 26.0 °C 1006.8 hPa SE 17 km/h 20 km/h 64% 0.00 mm 385.45 W/m2
12:24 35.0 °C 27.0 °C 1006.8 hPa SE 8 km/h 12 km/h 63% 0.00 mm 615.91 W/m2
12:29 35.0 °C 27.0 °C 1006.8 hPa ESE 14 km/h 20 km/h 61% 0.00 mm 433.85 W/m2
12:34 35.0 °C 26.0 °C 1006.4 hPa SE 6 km/h 8 km/h 61% 0.00 mm 483.15 W/m2
12:44 36.0 °C 27.0 °C 1006.4 hPa ENE 8 km/h 12 km/h 60% 0.00 mm 689.46 W/m2
12:49 35.0 °C 26.0 °C 1006.4 hPa ESE 9 km/h 12 km/h 60% 0.00 mm 585.55 W/m2
12:54 36.0 °C 26.0 °C 1006.4 hPa East 8 km/h 12 km/h 60% 0.00 mm 664.35 W/m2
12:59 36.0 °C 26.0 °C 1006.4 hPa East 6 km/h 12 km/h 60% 0.00 mm 581.66 W/m2
13:04 35.0 °C 26.0 °C 1006.1 hPa NE 9 km/h 12 km/h 61% 0.00 mm 274.91 W/m2
13:09 35.0 °C 26.0 °C 1006.1 hPa NNE 10 km/h 12 km/h 63% 0.00 mm 154.29 W/m2
13:14 34.0 °C 26.0 °C 1006.1 hPa North 12 km/h 12 km/h 65% 0.00 mm 158.69 W/m2
13:19 34.0 °C 26.0 °C 1006.1 hPa NNW 11 km/h 12 km/h 65% 0.00 mm 309.43 W/m2
13:24 34.0 °C 26.0 °C 1006.1 hPa NW 12 km/h 16 km/h 64% 0.00 mm 502.26 W/m2
13:29 34.0 °C 26.0 °C 1006.1 hPa WNW 6 km/h 8 km/h 64% 0.00 mm 136.23 W/m2
13:34 34.0 °C 26.0 °C 1005.8 hPa NW 5 km/h 8 km/h 64% 0.00 mm 134.17 W/m2
13:39 33.0 °C 26.0 °C 1006.1 hPa NW 6 km/h 8 km/h 65% 0.00 mm 455.45 W/m2
13:44 34.0 °C 26.0 °C 1006.1 hPa NW 7 km/h 8 km/h 65% 0.00 mm 520.36 W/m2
13:49 35.0 °C 26.0 °C 1005.8 hPa NW 12 km/h 16 km/h 63% 0.00 mm 538.84 W/m2
13:54 35.0 °C 26.0 °C 1005.8 hPa NW 8 km/h 8 km/h 63% 0.00 mm 524.72 W/m2
13:59 35.0 °C 27.0 °C 1005.8 hPa NW 9 km/h 12 km/h 62% 0.00 mm 558.85 W/m2
14:04 35.0 °C 26.0 °C 1005.8 hPa NW 23 km/h 24 km/h 63% 0.00 mm 571.43 W/m2
14:09 34.0 °C 26.0 °C 1005.8 hPa WNW 5 km/h 12 km/h 63% 0.00 mm 523.89 W/m2
14:14 35.0 °C 27.0 °C 1005.8 hPa WNW 19 km/h 24 km/h 63% 0.00 mm 582.46 W/m2
14:19 35.0 °C 26.0 °C 1005.8 hPa NW 22 km/h 24 km/h 63% 0.00 mm 554.11 W/m2
14:24 35.0 °C 26.0 °C 1005.8 hPa NW 15 km/h 20 km/h 63% 0.00 mm 538.40 W/m2
14:29 34.0 °C 26.0 °C 1005.4 hPa NNW 14 km/h 16 km/h 64% 0.00 mm 282.62 W/m2
14:34 34.0 °C 26.0 °C 1005.4 hPa NW 9 km/h 12 km/h 64% 0.00 mm 363.41 W/m2
14:39 35.0 °C 26.0 °C 1005.8 hPa South 3 km/h 8 km/h 62% 0.00 mm 453.08 W/m2
14:44 35.0 °C 26.0 °C 1005.4 hPa NW 17 km/h 20 km/h 63% 0.00 mm 304.73 W/m2
14:49 35.0 °C 26.0 °C 1005.4 hPa NW 20 km/h 24 km/h 65% 0.00 mm 201.12 W/m2
14:54 34.0 °C 26.0 °C 1005.4 hPa NW 14 km/h 16 km/h 65% 0.00 mm 152.30 W/m2
14:59 34.0 °C 26.0 °C 1005.4 hPa WNW 20 km/h 24 km/h 66% 0.00 mm 132.88 W/m2
15:04 34.0 °C 26.0 °C 1005.4 hPa WNW 9 km/h 12 km/h 66% 0.00 mm 221.25 W/m2
15:09 34.0 °C 26.0 °C 1005.8 hPa NW 10 km/h 16 km/h 66% 0.00 mm 349.22 W/m2
15:14 34.0 °C 26.0 °C 1005.4 hPa NW 14 km/h 16 km/h 66% 0.00 mm 429.79 W/m2
15:19 34.0 °C 26.0 °C 1005.4 hPa WNW 17 km/h 20 km/h 65% 0.00 mm 439.26 W/m2
15:24 35.0 °C 26.0 °C 1005.4 hPa NW 11 km/h 16 km/h 65% 0.00 mm 453.13 W/m2
15:29 35.0 °C 27.0 °C 1005.1 hPa NW 10 km/h 12 km/h 63% 0.00 mm 450.90 W/m2
15:34 35.0 °C 27.0 °C 1005.4 hPa West 5 km/h 8 km/h 63% 0.00 mm 453.35 W/m2
15:39 36.0 °C 27.0 °C 1005.4 hPa WNW 13 km/h 16 km/h 62% 0.00 mm 458.93 W/m2
15:44 35.0 °C 26.0 °C 1005.1 hPa NW 15 km/h 16 km/h 63% 0.00 mm 451.24 W/m2
15:49 35.0 °C 27.0 °C 1005.1 hPa NW 14 km/h 16 km/h 63% 0.00 mm 433.16 W/m2
15:54 35.0 °C 27.0 °C 1005.1 hPa SSW 7 km/h 8 km/h 62% 0.00 mm 432.23 W/m2
15:59 36.0 °C 27.0 °C 1005.4 hPa WNW 9 km/h 12 km/h 62% 0.00 mm 424.28 W/m2
16:04 35.0 °C 27.0 °C 1005.4 hPa NW 10 km/h 16 km/h 62% 0.00 mm 422.01 W/m2
16:09 36.0 °C 27.0 °C 1005.1 hPa SW 6 km/h 12 km/h 62% 0.00 mm 401.63 W/m2
16:14 36.0 °C 27.0 °C 1005.4 hPa WNW 12 km/h 16 km/h 62% 0.00 mm 402.51 W/m2
16:19 35.0 °C 27.0 °C 1005.1 hPa NW 13 km/h 16 km/h 63% 0.00 mm 391.86 W/m2
16:24 35.0 °C 27.0 °C 1005.1 hPa WNW 13 km/h 16 km/h 64% 0.00 mm 373.61 W/m2
16:29 35.0 °C 27.0 °C 1005.1 hPa WSW 7 km/h 12 km/h 62% 0.00 mm 357.07 W/m2
16:34 36.0 °C 27.0 °C 1005.4 hPa South 3 km/h 8 km/h 60% 0.00 mm 333.34 W/m2
16:39 36.0 °C 27.0 °C 1005.1 hPa WNW 4 km/h 8 km/h 60% 0.00 mm 320.15 W/m2
16:44 35.0 °C 26.0 °C 1005.1 hPa WNW 6 km/h 8 km/h 62% 0.00 mm 319.27 W/m2
16:49 35.0 °C 26.0 °C 1005.1 hPa SSW 5 km/h 8 km/h 61% 0.00 mm 304.34 W/m2
16:54 35.0 °C 27.0 °C 1005.1 hPa SSW 3 km/h 4 km/h 61% 0.00 mm 272.46 W/m2
16:59 36.0 °C 27.0 °C 1005.1 hPa West 5 km/h 8 km/h 61% 0.00 mm 273.78 W/m2
17:04 35.0 °C 26.0 °C 1005.1 hPa North 3 km/h 8 km/h 60% 0.00 mm 257.27 W/m2
17:09 35.0 °C 26.0 °C 1005.1 hPa South 5 km/h 8 km/h 62% 0.00 mm 230.38 W/m2
17:14 35.0 °C 27.0 °C 1005.4 hPa South 5 km/h 8 km/h 62% 0.00 mm 216.87 W/m2
17:19 35.0 °C 26.0 °C 1005.1 hPa South 7 km/h 8 km/h 63% 0.00 mm 191.28 W/m2
17:24 34.0 °C 26.0 °C 1005.1 hPa SSW 2 km/h 8 km/h 64% 0.00 mm 164.61 W/m2
17:29 34.0 °C 26.0 °C 1005.4 hPa SSE 6 km/h 8 km/h 64% 0.00 mm 148.22 W/m2
17:34 34.0 °C 26.0 °C 1005.4 hPa SSW 4 km/h 8 km/h 64% 0.00 mm 102.32 W/m2
17:39 34.0 °C 26.0 °C 1005.4 hPa WSW 5 km/h 8 km/h 66% 0.00 mm 64.32 W/m2
17:44 33.0 °C 26.0 °C 1005.8 hPa South 5 km/h 8 km/h 66% 0.00 mm 49.02 W/m2
17:54 33.0 °C 26.0 °C 1005.8 hPa South 6 km/h 12 km/h 68% 0.00 mm 25.92 W/m2
17:59 33.0 °C 26.0 °C 1005.8 hPa SSE 5 km/h 8 km/h 69% 0.00 mm 23.55 W/m2
18:04 33.0 °C 26.0 °C 1005.8 hPa SSE 8 km/h 12 km/h 70% 0.00 mm 18.71 W/m2
18:09 32.0 °C 26.0 °C 1005.8 hPa SSW 8 km/h 12 km/h 70% 0.00 mm 16.90 W/m2
18:14 32.0 °C 26.0 °C 1005.8 hPa South 10 km/h 12 km/h 71% 0.00 mm 11.30 W/m2
18:19 32.0 °C 26.0 °C 1006.1 hPa SSE 10 km/h 12 km/h 70% 0.00 mm 6.04 W/m2
18:24 32.0 °C 27.0 °C 1006.1 hPa SSW 8 km/h 12 km/h 75% 0.00 mm 1.90 W/m2
18:29 32.0 °C 27.0 °C 1006.1 hPa SSE 9 km/h 12 km/h 78% 0.00 mm 0.00 W/m2
18:34 32.0 °C 27.0 °C 1006.4 hPa SSE 6 km/h 8 km/h 78% 0.00 mm 0.00 W/m2
18:39 31.0 °C 27.0 °C 1006.4 hPa SSE 12 km/h 16 km/h 79% 0.00 mm 0.00 W/m2
18:44 31.0 °C 27.0 °C 1006.4 hPa South 11 km/h 16 km/h 80% 0.00 mm 0.00 W/m2
18:49 31.0 °C 27.0 °C 1006.8 hPa SSE 14 km/h 20 km/h 79% 0.00 mm 0.00 W/m2
18:54 31.0 °C 27.0 °C 1006.4 hPa SSE 14 km/h 16 km/h 78% 0.00 mm 0.00 W/m2
18:59 31.0 °C 27.0 °C 1006.4 hPa SSE 14 km/h 16 km/h 79% 0.00 mm 0.00 W/m2
19:04 31.0 °C 27.0 °C 1006.8 hPa SSE 14 km/h 16 km/h 79% 0.00 mm 0.00 W/m2
19:09 31.0 °C 27.0 °C 1006.8 hPa SSE 13 km/h 16 km/h 79% 0.00 mm 0.00 W/m2
19:14 31.0 °C 27.0 °C 1006.8 hPa South 10 km/h 12 km/h 79% 0.00 mm 0.00 W/m2
19:19 31.0 °C 27.0 °C 1006.8 hPa SSE 9 km/h 12 km/h 79% 0.00 mm 0.00 W/m2
19:24 31.0 °C 27.0 °C 1007.1 hPa SSE 16 km/h 20 km/h 79% 0.00 mm 0.00 W/m2
19:29 31.0 °C 27.0 °C 1007.1 hPa SSE 15 km/h 20 km/h 79% 0.00 mm 0.00 W/m2
19:34 31.0 °C 27.0 °C 1007.1 hPa SSE 10 km/h 16 km/h 80% 0.00 mm 0.00 W/m2
19:39 31.0 °C 27.0 °C 1007.1 hPa SSE 16 km/h 20 km/h 79% 0.00 mm 0.00 W/m2
19:44 31.0 °C 27.0 °C 1007.1 hPa SSE 10 km/h 12 km/h 79% 0.00 mm 0.00 W/m2
19:49 31.0 °C 27.0 °C 1007.1 hPa SE 11 km/h 16 km/h 79% 0.00 mm 0.00 W/m2
19:54 31.0 °C 27.0 °C 1007.1 hPa SSE 12 km/h 16 km/h 79% 0.00 mm 0.00 W/m2
19:59 31.0 °C 26.0 °C 1007.1 hPa SSE 11 km/h 12 km/h 78% 0.00 mm 0.00 W/m2
20:04 31.0 °C 27.0 °C 1007.5 hPa SSE 13 km/h 16 km/h 79% 0.00 mm 0.00 W/m2
20:09 31.0 °C 27.0 °C 1007.5 hPa SSE 10 km/h 12 km/h 79% 0.00 mm 0.00 W/m2
20:14 31.0 °C 27.0 °C 1007.5 hPa SSE 14 km/h 16 km/h 81% 0.00 mm 0.00 W/m2
20:15 31.0 °C 27.0 °C 1007.5 hPa South 3 km/h 4 km/h 81% 0.00 mm 0.00 W/m2
20:24 31.0 °C 27.0 °C 1007.5 hPa South 8 km/h 8 km/h 81% 0.00 mm 0.00 W/m2
20:29 31.0 °C 27.0 °C 1007.6 hPa SSE 8 km/h 12 km/h 81% 0.00 mm 0.00 W/m2
20:34 31.0 °C 27.0 °C 1007.7 hPa SSE 11 km/h 16 km/h 80% 0.00 mm 0.00 W/m2
20:39 31.0 °C 27.0 °C 1007.8 hPa South 7 km/h 8 km/h 81% 0.00 mm 0.00 W/m2
20:44 31.0 °C 27.0 °C 1007.7 hPa SSE 5 km/h 8 km/h 81% 0.00 mm 0.00 W/m2
20:49 31.0 °C 27.0 °C 1007.8 hPa SSE 8 km/h 12 km/h 80% 0.00 mm 0.00 W/m2
20:54 31.0 °C 27.0 °C 1007.9 hPa SSE 13 km/h 16 km/h 80% 0.00 mm 0.00 W/m2
20:59 31.0 °C 27.0 °C 1008.0 hPa SSE 8 km/h 12 km/h 79% 0.00 mm 0.00 W/m2
21:04 31.0 °C 27.0 °C 1008.2 hPa SSE 9 km/h 12 km/h 80% 0.00 mm 0.00 W/m2
21:09 31.0 °C 27.0 °C 1008.3 hPa SSE 8 km/h 12 km/h 80% 0.00 mm 0.00 W/m2
21:14 31.0 °C 27.0 °C 1008.1 hPa SE 8 km/h 12 km/h 80% 0.00 mm 0.00 W/m2
21:19 31.0 °C 27.0 °C 1008.2 hPa SE 11 km/h 16 km/h 79% 0.00 mm 0.00 W/m2
21:24 31.0 °C 26.0 °C 1008.2 hPa Calm     75% 0.00 mm 0.00 W/m2
21:29 31.0 °C 26.0 °C 1008.3 hPa Calm     73% 0.00 mm 0.00 W/m2
21:34 31.0 °C 26.0 °C 1008.3 hPa Calm     73% 0.00 mm 0.00 W/m2
21:39 31.0 °C 26.0 °C 1008.4 hPa Calm     73% 0.00 mm 0.00 W/m2
21:44 31.0 °C 26.0 °C 1008.4 hPa Calm     73% 0.00 mm 0.00 W/m2
21:49 31.0 °C 25.0 °C 1008.5 hPa SE 18 km/h 20 km/h 72% 0.00 mm 0.00 W/m2
21:54 31.0 °C 25.0 °C 1008.4 hPa Calm     72% 0.00 mm 0.00 W/m2
21:59 31.0 °C 25.0 °C 1008.4 hPa SE 12 km/h 20 km/h 72% 0.00 mm 0.00 W/m2
22:09 31.0 °C 25.0 °C 1008.8 hPa SE 15 km/h 16 km/h 72% 0.00 mm 0.00 W/m2
22:14 31.0 °C 25.0 °C 1008.8 hPa SE 14 km/h 16 km/h 72% 0.00 mm 0.00 W/m2
22:19 31.0 °C 25.0 °C 1008.8 hPa SE 10 km/h 12 km/h 73% 0.00 mm 0.00 W/m2
22:24 31.0 °C 25.0 °C 1008.8 hPa SSE 10 km/h 12 km/h 73% 0.00 mm 0.00 W/m2
22:29 31.0 °C 26.0 °C 1008.8 hPa SE 12 km/h 16 km/h 74% 0.00 mm 0.00 W/m2
22:34 31.0 °C 26.0 °C 1008.8 hPa SE 19 km/h 20 km/h 76% 0.00 mm 0.00 W/m2
22:39 30.0 °C 26.0 °C 1008.8 hPa SE 14 km/h 16 km/h 77% 0.00 mm 0.00 W/m2
22:44 30.0 °C 26.0 °C 1008.8 hPa SE 14 km/h 20 km/h 77% 0.00 mm 0.00 W/m2
22:49 30.0 °C 26.0 °C 1008.8 hPa SE 6 km/h 8 km/h 78% 0.00 mm 0.00 W/m2
22:54 30.0 °C 26.0 °C 1008.8 hPa ESE 6 km/h 8 km/h 77% 0.00 mm 0.00 W/m2
22:59 30.0 °C 26.0 °C 1008.8 hPa SE 4 km/h 4 km/h 77% 0.00 mm 0.00 W/m2
23:04 30.0 °C 26.0 °C 1008.8 hPa ESE 1 km/h 4 km/h 78% 0.00 mm 0.00 W/m2
23:09 30.0 °C 26.0 °C 1008.8 hPa ESE 6 km/h 12 km/h 78% 0.00 mm 0.00 W/m2
23:14 30.0 °C 26.0 °C 1008.8 hPa East 5 km/h 8 km/h 78% 0.00 mm 0.00 W/m2
23:19 30.0 °C 26.0 °C 1008.8 hPa SE 7 km/h 12 km/h 78% 0.00 mm 0.00 W/m2
23:24 30.0 °C 26.0 °C 1008.5 hPa ESE 6 km/h 8 km/h 77% 0.00 mm 0.00 W/m2
23:29 30.0 °C 26.0 °C 1008.8 hPa SE 3 km/h 4 km/h 78% 0.00 mm 0.00 W/m2
23:34 30.0 °C 26.0 °C 1008.5 hPa ESE 4 km/h 8 km/h 78% 0.00 mm 0.00 W/m2
23:39 30.0 °C 26.0 °C 1008.5 hPa Calm     78% 0.00 mm 0.00 W/m2
23:42 30.0 °C 25.0 °C 1008.5 hPa Calm     76% 0.00 mm 0.00 W/m2
23:54 30.0 °C 25.0 °C 1008.5 hPa Calm     76% 0.00 mm 0.00 W/m2
23:59 30.0 °C 26.0 °C 1008.5 hPa SE 3 km/h 4 km/h 77% 0.00 mm 0.00 W/m2
PIMOHWEATHER Philippines
Compliments of Weather Underground - 2 mb